5 day graph

You are here

Error message

  • Notice: Trying to access array offset on value of type int in DrupalRequestSanitizer::stripDangerousValues() (line 102 of /home/twolittl/public_html/cms/includes/request-sanitizer.inc).
  • Notice: Trying to access array offset on value of type int in DrupalRequestSanitizer::stripDangerousValues() (line 102 of /home/twolittl/public_html/cms/includes/request-sanitizer.inc).
  • Notice: Trying to access array offset on value of type int in DrupalRequestSanitizer::stripDangerousValues() (line 102 of /home/twolittl/public_html/cms/includes/request-sanitizer.inc).
  • Notice: Trying to access array offset on value of type int in DrupalRequestSanitizer::stripDangerousValues() (line 102 of /home/twolittl/public_html/cms/includes/request-sanitizer.inc).
  • Notice: Trying to access array offset on value of type int in DrupalRequestSanitizer::stripDangerousValues() (line 102 of /home/twolittl/public_html/cms/includes/request-sanitizer.inc).
  • Notice: Trying to access array offset on value of type int in DrupalRequestSanitizer::stripDangerousValues() (line 102 of /home/twolittl/public_html/cms/includes/request-sanitizer.inc).
  • Notice: Trying to access array offset on value of type int in DrupalRequestSanitizer::stripDangerousValues() (line 102 of /home/twolittl/public_html/cms/includes/request-sanitizer.inc).
  • Notice: Trying to access array offset on value of type int in DrupalRequestSanitizer::stripDangerousValues() (line 102 of /home/twolittl/public_html/cms/includes/request-sanitizer.inc).
  • Notice: Trying to access array offset on value of type int in DrupalRequestSanitizer::stripDangerousValues() (line 102 of /home/twolittl/public_html/cms/includes/request-sanitizer.inc).
  • Notice: Trying to access array offset on value of type int in DrupalRequestSanitizer::stripDangerousValues() (line 102 of /home/twolittl/public_html/cms/includes/request-sanitizer.inc).
  • Notice: Trying to access array offset on value of type int in DrupalRequestSanitizer::stripDangerousValues() (line 102 of /home/twolittl/public_html/cms/includes/request-sanitizer.inc).
  • Notice: Trying to access array offset on value of type int in DrupalRequestSanitizer::stripDangerousValues() (line 102 of /home/twolittl/public_html/cms/includes/request-sanitizer.inc).
  • Deprecated function: Function get_magic_quotes_gpc() is deprecated in phpMyEdit->get_cgi_var() (line 1773 of /home/twolittl/public_html/phpMyEdit.class.php).
  • Deprecated function: implode(): Passing glue string after array is deprecated. Swap the parameters in drupal_get_feeds() (line 394 of /home/twolittl/public_html/cms/includes/common.inc).

Hive Data

Page: 1 of 16645  Records: 998690

Row Date Time Hive Temp Hive Humidity Outside Temp Outside Humidity Bottom Board Temp Outside Wall Temp Electronics Temp Light Levels inHG Fan Heat Cover Notes
Clear Sorted By: Cover ascending, Notes descending, Hive Temp ascending, Outside Wall Temp ascending, Outside Humidity ascending, Row descending
View 237336 May 12 2014 2:53:40pm 79.88 62 56.48 76 71.6 59 77 649 29.28 0 0 0 This is the end of some bad data. I changed the time and tried some daylight savings changes and I messed up the Month Day order and did them backward... oops! Fixed the code but need to changed all the dates on the last 24hours or so...
View 1 May 4 2014 12:38:31pm 82.4 47 60.62 58 81.5 64.4 78.8 884 29.06 0 0 0 Started Capturing Data from the Arduino and saving it to SQL. There is more data on the SD card.
View 307829 Jan 1 2015 4:50:53pm 67.1 61 36.5 53 48.65 49.1 68 239 29.5 0 0 0 Shutting down to move hive.
View 1694 May 5 2014 5:25:42pm 83.12 63 57.02 79 81.5 61.25 78.8 849 29.28 0 0 0 Restarted logging server to test reconnect after a failure.
View 220455 Oct 25 2014 8:30:41am 80.6 60 52.7 76 71.15 54.95 73.4 124 28.89 1 0 0 Recovery from power loss. Lost about 1 hour of data during power outage.
View 60831 Jun 16 2014 5:26:36pm 82.58 46 64.04 57 67.1 67.1 80.6 881 29.2 0 0 0 Placed warm feed and feeder. 1/2 gal 1:1
View 456203 Apr 25 2015 11:36:39am 92.48 53 52.52 77 50.9 74.75 84.2 170 29.25 0 0 0 Opened hive and removed 2 frames for new package. Replaced frames with foundationless. Packaged new hive (Italians)
View 696803 Nov 11 2015 2:59:26pm 25.3 45 10.9 59 52.7 54.5 68 931 29.56 0 1 0 NA
View 696804 Nov 11 2015 3:00:27pm 25.6 41 11 59 54.95 54.5 68 930 29.56 0 1 0 NA
View 367299 Feb 17 2015 4:48:23am 32 0 33.62 71 102.65 38.75 60.8 238 29.44 0 1 0 NA
View 367298 Feb 17 2015 4:47:23am 32 0 33.62 71 102.65 38.75 60.8 237 29.44 0 1 0 NA
View 367286 Feb 17 2015 4:35:18am 32 0 33.8 71 102.2 38.75 59 237 29.44 0 1 0 NA
View 367285 Feb 17 2015 4:34:18am 32 0 33.62 71 102.2 38.75 59 237 29.44 0 1 0 NA
View 367284 Feb 17 2015 4:33:17am 32 0 33.8 71 102.2 38.75 59 237 29.45 0 1 0 NA
View 367283 Feb 17 2015 4:32:17am 32 0 33.8 71 101.75 38.75 59 237 29.44 0 1 0 NA
View 367282 Feb 17 2015 4:31:17am 32 0 33.8 71 101.75 38.75 59 237 29.44 0 1 0 NA
View 367278 Feb 17 2015 4:27:15am 32 0 33.8 71 101.75 38.75 59 238 29.44 0 1 0 NA
View 367276 Feb 17 2015 4:25:14am 32 0 33.8 71 101.3 38.75 59 238 29.44 0 1 0 NA
View 367275 Feb 17 2015 4:24:14am 32 0 33.8 71 101.3 38.75 59 238 29.44 0 1 0 NA
View 367273 Feb 17 2015 4:22:13am 32 0 33.8 71 101.3 38.75 59 238 29.45 0 1 0 NA
View 367362 Feb 17 2015 5:52:34am 32 0 33.44 72 104.9 38.75 60.8 237 29.43 0 1 0 NA
View 367345 Feb 17 2015 5:35:28am 32 0 33.26 72 104.45 38.75 60.8 237 29.44 0 1 0 NA
View 367342 Feb 17 2015 5:32:26am 32 0 33.26 72 104.45 38.75 60.8 237 29.43 0 1 0 NA
View 367341 Feb 17 2015 5:31:26am 32 0 33.08 72 104.45 38.75 60.8 236 29.43 0 1 0 NA
View 367338 Feb 17 2015 5:28:25am 32 0 33.26 72 104.45 38.75 60.8 237 29.43 0 1 0 NA
View 367337 Feb 17 2015 5:27:25am 32 0 33.26 72 104.45 38.75 60.8 237 29.43 0 1 0 NA
View 367336 Feb 17 2015 5:26:24am 32 0 33.26 72 104.45 38.75 60.8 237 29.43 0 1 0 NA
View 367335 Feb 17 2015 5:25:24am 32 0 33.26 72 104.45 38.75 60.8 237 29.43 0 1 0 NA
View 367334 Feb 17 2015 5:24:24am 32 0 33.26 72 104 38.75 60.8 237 29.43 0 1 0 NA
View 367333 Feb 17 2015 5:23:23am 32 0 33.26 72 104 38.75 60.8 237 29.43 0 1 0 NA
View 367332 Feb 17 2015 5:22:23am 32 0 33.26 72 104 38.75 60.8 237 29.43 0 1 0 NA
View 367329 Feb 17 2015 5:19:22am 32 0 33.26 72 104 38.75 60.8 237 29.43 0 1 0 NA
View 367309 Feb 17 2015 4:58:27am 32 0 33.44 72 103.1 38.75 60.8 237 29.44 0 1 0 NA
View 367308 Feb 17 2015 4:57:26am 32 0 33.44 72 103.1 38.75 60.8 237 29.44 0 1 0 NA
View 367307 Feb 17 2015 4:56:26am 32 0 33.44 72 103.1 38.75 60.8 238 29.43 0 1 0 NA
View 367306 Feb 17 2015 4:55:26am 32 0 33.62 72 103.1 38.75 60.8 237 29.43 0 1 0 NA
View 367305 Feb 17 2015 4:54:25am 32 0 33.62 72 103.1 38.75 60.8 237 29.44 0 1 0 NA
View 367304 Feb 17 2015 4:53:25am 32 0 33.62 72 103.1 38.75 60.8 237 29.44 0 1 0 NA
View 367303 Feb 17 2015 4:52:24am 32 0 33.62 72 103.1 38.75 60.8 237 29.44 0 1 0 NA
View 367302 Feb 17 2015 4:51:24am 32 0 33.62 72 103.1 38.75 60.8 237 29.44 0 1 0 NA
View 367301 Feb 17 2015 4:50:24am 32 0 33.62 72 102.65 38.75 60.8 237 29.44 0 1 0 NA
View 367300 Feb 17 2015 4:49:23am 32 0 33.62 72 103.1 38.75 60.8 237 29.44 0 1 0 NA
View 367297 Feb 17 2015 4:46:22am 32 0 33.62 72 102.65 38.75 60.8 238 29.44 0 1 0 NA
View 367296 Feb 17 2015 4:45:22am 32 0 33.62 72 102.65 38.75 60.8 237 29.44 0 1 0 NA
View 367295 Feb 17 2015 4:44:21am 32 0 33.62 72 102.65 38.75 60.8 237 29.44 0 1 0 NA
View 367294 Feb 17 2015 4:43:21am 32 0 33.62 72 102.65 38.75 60.8 237 29.44 0 1 0 NA
View 367293 Feb 17 2015 4:42:21am 32 0 33.62 72 102.65 38.75 60.8 238 29.44 0 1 0 NA
View 367292 Feb 17 2015 4:41:20am 32 0 33.62 72 102.65 38.75 60.8 237 29.44 0 1 0 NA
View 367291 Feb 17 2015 4:40:20am 32 0 33.62 72 102.2 38.75 60.8 237 29.44 0 1 0 NA
View 367290 Feb 17 2015 4:39:20am 32 0 33.62 72 102.2 38.75 60.8 237 29.44 0 1 0 NA
View 367289 Feb 17 2015 4:38:19am 32 0 33.62 72 102.2 38.75 60.8 238 29.44 0 1 0 NA
View 367288 Feb 17 2015 4:37:19am 32 0 33.62 72 102.2 38.75 60.8 237 29.44 0 1 0 NA
View 367287 Feb 17 2015 4:36:18am 32 0 33.8 72 102.2 38.75 59 237 29.44 0 1 0 NA
View 367280 Feb 17 2015 4:29:16am 32 0 33.8 72 101.75 38.75 59 237 29.44 0 1 0 NA
View 367279 Feb 17 2015 4:28:15am 32 0 33.8 72 101.3 38.75 59 237 29.44 0 1 0 NA
View 367277 Feb 17 2015 4:26:15am 32 0 33.8 72 101.3 38.75 59 238 29.44 0 1 0 NA
View 367366 Feb 17 2015 5:56:35am 32 0 33.44 73 104.9 38.75 60.8 237 29.43 0 1 0 NA
View 367365 Feb 17 2015 5:55:35am 32 0 33.44 73 104.9 38.75 60.8 237 29.43 0 1 0 NA
View 367364 Feb 17 2015 5:54:35am 32 0 33.44 73 104.9 38.75 60.8 236 29.43 0 1 0 NA
View 367363 Feb 17 2015 5:53:34am 32 0 33.44 73 104.9 38.75 60.8 237 29.43 0 1 0 NA